CW2654 Weather Reports


time (UTC)temp
C
wind
direction
speed
KPH
gust
KPH
rain 1hr
cm
rain 24hr
cm
rain mn
cm
humidity
%
barometer
mb
20260509021553 16 0 0.0 0.0 0.00 0.00 0.00 61 1021.1
20260509020105 16 0 0.0 4.8 0.00 0.00 0.00 61 1021.3
20260509014556 16 223 0.0 6.4 0.00 0.00 0.00 60 1021.2
20260509013056 16 0 0.0 8.0 0.00 0.00 0.00 61 1021.4
20260509011604 16 352 0.0 4.8 0.00 0.00 0.00 58 1021.4
20260509010059 17 0 0.0 4.8 0.00 0.00 0.00 59 1021.5
20260509004555 17 0 1.6 8.0 0.00 0.00 0.00 58 1021.6
20260509003057 17 0 0.0 6.4 0.00 0.00 0.00 61 1021.7
20260509001552 17 0 0.0 6.4 0.00 0.00 0.00 60 1021.7
20260509000055 16 360 0.0 8.0 0.00 0.00 0.00 60 1021.7
20260508234557 17 311 0.0 9.7 0.00 0.00 0.00 59 1021.7
20260508233104 17 330 3.2 9.7 0.00 0.00 0.00 59 1021.5
20260508231613 17 286 0.0 8.0 0.00 0.00 0.00 61 1021.6
20260508230057 17 0 1.6 6.4 0.00 0.00 0.00 56 1021.6
20260508224607 17 308 1.6 11.3 0.00 0.00 0.00 58 1021.6
20260508223059 17 194 1.6 16.1 0.00 0.00 0.00 54 1021.9
20260508221558 17 130 1.6 9.7 0.00 0.00 0.00 54 1021.8
20260508220106 17 300 3.2 8.0 0.00 0.00 0.00 60 1021.8
20260508214603 17 315 0.0 12.9 0.00 0.00 0.00 56 1021.9
20260508213058 17 272 3.2 16.1 0.00 0.00 0.00 56 1021.9
20260508211603 17 338 1.6 14.5 0.00 0.00 0.00 61 1021.8
20260508210054 17 223 4.8 14.5 0.00 0.00 0.00 55 1021.9
20260508204555 16 234 3.2 12.9 0.00 0.00 0.00 59 1021.8
20260508203054 16 205 3.2 14.5 0.00 0.00 0.00 61 1022.0
20260508201554 16 360 1.6 14.5 0.00 0.00 0.00 64 1021.9
20260508200055 15 88 4.8 14.5 0.00 0.00 0.00 61 1021.9
20260508194605 15 181 3.2 12.9 0.00 0.00 0.00 64 1021.8
20260508193114 14 220 3.2 12.9 0.00 0.00 0.00 66 1022.1
20260508191605 13 287 6.4 22.5 0.00 0.00 0.00 66 1022.2
20260508190113 13 171 4.8 16.1 0.00 0.00 0.00 67 1022.3
20260508184618 13 348 3.2 16.1 0.00 0.00 0.00 73 1022.2
20260508183100 12 255 6.4 19.3 0.00 0.00 0.00 72 1022.1
20260508181605 13 246 0.0 8.0 0.00 0.00 0.00 73 1021.7
20260508180106 12 215 4.8 17.7 0.00 0.00 0.00 72 1021.9
20260508174556 12 224 4.8 16.1 0.00 0.00 0.00 73 1021.6
20260508173053 12 141 3.2 16.1 0.00 0.00 0.00 76 1021.4
20260508171557 12 168 4.8 12.9 0.00 0.00 0.00 76 1021.2
20260508170058 11 181 4.8 12.9 0.00 0.00 0.00 76 1021.0
20260508164554 11 227 8.0 16.1 0.00 0.00 0.00 80 1021.0
20260508163104 10 197 6.4 14.5 0.00 0.00 0.00 80 1020.6
20260508161557 9 150 3.2 9.7 0.00 0.00 0.00 83 1020.5
20260508160054 8 0 1.6 11.3 0.00 0.00 0.00 84 1020.4
20260508154556 8 0 3.2 16.1 0.00 0.00 0.00 84 1020.7
20260508153104 8 128 3.2 12.9 0.00 0.00 0.00 84 1020.9
20260508151556 8 134 1.6 8.0 0.00 0.00 0.00 85 1021.1
20260508150052 8 230 3.2 19.3 0.00 0.00 0.00 85 1021.1
20260508144550 8 239 11.3 25.7 0.00 0.00 0.00 84 1021.3
20260508143114 8 243 1.6 14.5 0.00 0.00 0.00 85 1020.9
20260508141559 8 0 1.6 16.1 0.00 0.00 0.00 85 1020.6
20260508140110 9 0 0.0 0.0 0.00 0.00 0.00 84 1020.1
20260508134552 9 0 0.0 3.2 0.00 0.00 0.00 82 1019.8
20260508133102 9 0 0.0 14.5 0.00 0.00 0.00 80 1019.6
20260508131552 9 0 0.0 1.6 0.00 0.00 0.00 79 1019.4
20260508130054 9 0 0.0 3.2 0.00 0.00 0.00 79 1019.2
20260508124554 9 0 0.0 0.0 0.00 0.00 0.00 81 1019.0
20260508123052 9 0 0.0 0.0 0.00 0.00 0.00 80 1019.0
20260508121550 8 0 0.0 8.0 0.00 0.00 0.00 82 1018.8
20260508120108 8 0 0.0 3.2 0.00 0.00 0.00 87 1018.7
20260508114600 7 0 0.0 0.0 0.00 0.00 0.00 91 1018.5
20260508113109 7 0 0.0 0.0 0.00 0.00 0.00 91 1018.3
20260508111551 7 0 0.0 0.0 0.00 0.00 0.00 91 1018.0
20260508104552 7 0 0.0 0.0 0.00 0.00 0.00 90 1017.8
20260508103058 7 0 0.0 0.0 0.00 0.00 0.00 90 1017.6
20260508101556 7 0 0.0 1.6 0.00 0.00 0.00 91 1017.5
20260508100125 7 128 0.0 1.6 0.00 0.00 0.00 90 1017.5
20260508094631 6 0 0.0 6.4 0.00 0.00 0.00 91 1017.4
20260508093053 6 80 1.6 9.7 0.00 0.00 0.00 91 1017.2
20260508091611 6 122 1.6 6.4 0.00 0.00 0.00 92 1017.1
20260508090053 6 111 1.6 6.4 0.00 0.00 0.00 92 1017.1
20260508084556 6 104 0.0 3.2 0.00 0.00 0.00 92 1017.0
20260508083056 6 107 1.6 4.8 0.00 0.00 0.00 91 1016.9
20260508081610 6 101 1.6 4.8 0.00 0.00 0.00 91 1016.8
20260508080059 7 102 0.0 3.2 0.00 0.00 0.00 91 1016.8
20260508074559 7 0 1.6 4.8 0.00 0.00 0.00 91 1016.8
20260508073102 7 107 1.6 6.4 0.00 0.00 0.00 91 1016.8
20260508071554 7 107 3.2 6.4 0.00 0.00 0.00 91 1016.8
20260508070052 7 99 1.6 6.4 0.00 0.00 0.00 90 1016.9
20260508064556 7 103 1.6 6.4 0.00 0.00 0.00 90 1016.9
20260508063058 7 103 3.2 9.7 0.00 0.00 0.00 90 1017.0
20260508061552 7 105 1.6 6.4 0.00 0.00 0.00 90 1017.0
20260508060111 7 109 3.2 6.4 0.00 0.00 0.00 90 1017.1
20260508054639 8 105 3.2 6.4 0.00 0.00 0.00 90 1017.1
20260508053053 8 98 3.2 6.4 0.00 0.00 0.00 89 1017.1
20260508051552 8 90 3.2 4.8 0.00 0.00 0.00 88 1017.1
20260508050053 8 105 3.2 6.4 0.00 0.00 0.00 88 1017.1
20260508044551 9 107 3.2 9.7 0.00 0.00 0.00 88 1017.1
20260508043058 10 110 3.2 6.4 0.00 0.00 0.00 87 1017.0
20260508041554 10 105 3.2 6.4 0.00 0.00 0.00 85 1017.0
20260508040055 11 108 0.0 4.8 0.00 0.00 0.00 84 1016.7
20260508034553 11 107 1.6 6.4 0.00 0.00 0.00 82 1016.4
20260508033049 12 100 1.6 6.4 0.00 0.00 0.00 80 1016.3
20260508031601 13 0 0.0 3.2 0.00 0.00 0.00 77 1016.2
20260508030104 14 0 0.0 3.2 0.00 0.00 0.00 74 1016.3
20260508024604 15 0 0.0 3.2 0.00 0.00 0.00 69 1016.2
20260508023057 16 0 0.0 1.6 0.00 0.00 0.00 63 1016.4